Tracking 23726 objects as of 24-Sep-2021
HD Live streaming from Space Station
objects crossing your sky now

STARLINK-2184

Track STARLINK-2184 now!
10-day predictions
STARLINK-2184 is classified as:


NORAD ID: 47766
Int'l Code: 2021-017AW
Perigee: 553.4 km
Apogee: 555.3 km
Inclination: 53.1 °
Period: 95.6 minutes
Semi major axis: 6925 km
RCS: Unknown
Launch date: March 4, 2021
Source: United States (US)
Launch site: AIR FORCE EASTERN TEST RANGE (AFETR)
aabbcc
Your satellite tracking list
Your tracking list is empty




NASA's NSSDC Master Catalog

Two Line Element Set (TLE):
1 47766U 21017AW  21266.58500238 -.00002574  00000-0 -15393-3 0  9993
2 47766  53.0568 335.4599 0001378  91.8943 268.2204 15.06409069 32111
Source of the keplerian elements: AFSPC